GFSFLT2_500_rhum_000.txt.gz
RH
39 45 46 55 94 54 61 69 68 80 76 80 86 85 92 93 91 80 41 25 9 6 7 10 10 12 12
53 59 54 88 94 70 74 74 76 75 82 88 91 93 98 99 96 58 32 13 6 7 10 9 14 16 21
75 61 77 98 97 92 91 85 85 92 90 83 93 92 98 100 83 40 21 6 6 11 10 14 20 22 23
76 69 94 99 92 97 96 93 99 100 89 81 85 94 100 100 64 31 10 5 9 12 15 18 25 23 30
75 94 98 94 96 99 96 95 100 100 90 87 92 91 100 96 44 18 4 6 12 14 18 19 26 28 38
96 96 98 97 98 95 95 99 100 100 100 95 98 97 100 74 29 7 5 10 12 22 20 20 26 31 40
96 97 93 97 99 92 96 100 100 99 98 98 99 94 94 55 15 3 9 10 18 27 27 26 31 35 40
96 99 97 98 98 94 99 97 95 100 100 100 98 98 90 35 6 4 8 11 25 27 30 37 41 43 39
99 98 98 98 99 99 100 95 98 100 100 99 100 100 62 17 3 6 8 19 22 24 30 45 48 55 43
97 97 98 99 98 100 100 100 98 99 100 100 100 95 26 4 3 8 12 19 20 21 27 50 64 71 55
100 99 97 98 99 100 100 100 100 100 100 100 99 61 9 3 7 11 14 19 26 31 23 41 72 78 66
99 99 96 98 100 100 100 100 100 100 100 100 95 30 4 7 10 14 18 25 34 34 28 35 68 88 78
96 98 99 98 99 100 100 100 100 100 100 100 64 9 4 9 14 14 21 39 41 39 34 39 68 91 93
100 97 99 100 100 100 100 100 99 100 100 92 19 3 9 11 15 21 22 25 36 38 38 43 70 74 60
92 99 100 100 100 100 100 100 99 100 100 44 4 6 11 14 17 26 21 21 30 38 53 43 66 62 60
98 100 100 100 100 100 100 99 100 100 76 15 4 8 11 13 15 29 23 28 31 46 49 41 39 57 71
100 100 100 100 100 99 100 100 98 94 29 5 7 12 16 22 20 23 39 34 34 35 36 42 56 76 54

GFSFLT2_500_rhum_006.txt.gz
RH
70 99 81 98 100 99 98 99 99 98 98 99 93 95 99 93 99 96 84 78 86 90 84 81 83 42 7
75 90 92 98 97 99 99 99 99 96 99 99 99 98 98 100 100 88 83 88 87 88 82 86 63 10 4
74 87 95 99 98 97 100 99 99 99 97 98 100 99 100 100 99 91 86 83 86 87 83 79 22 4 4
83 63 85 98 99 99 99 98 99 99 99 98 99 92 100 100 100 90 84 89 90 85 88 47 4 4 5
92 72 69 92 99 99 99 98 99 100 100 98 98 99 100 100 97 85 84 84 87 87 68 10 4 5 7
97 76 68 82 99 99 99 98 96 100 99 100 98 99 100 100 88 85 82 91 89 83 24 4 5 8 11
96 89 77 85 99 98 99 98 98 99 100 100 98 100 100 92 85 81 92 91 90 47 4 5 7 11 14
83 79 79 97 98 99 99 97 96 98 100 100 99 100 98 92 88 96 97 94 63 6 5 7 11 13 22
85 85 99 96 100 99 98 99 99 100 100 98 100 98 92 92 97 100 94 85 13 4 7 11 13 19 27
98 96 99 99 99 100 99 98 99 100 100 99 100 90 89 100 99 97 93 24 5 7 11 13 14 11 18
99 100 100 99 98 99 99 99 99 100 100 97 100 100 98 100 98 93 35 6 7 10 12 9 8 14 24
98 100 99 98 100 99 99 100 100 99 100 100 100 100 100 100 96 65 8 6 10 11 11 10 16 22 23
100 99 100 99 99 99 100 99 100 99 97 100 97 100 100 100 78 20 6 9 10 12 15 12 25 24 25
99 99 97 99 100 100 98 98 100 100 92 99 100 100 100 93 32 6 9 10 12 12 16 19 29 35 33
99 99 96 100 100 100 100 99 99 99 100 100 100 100 94 64 7 9 11 9 10 13 17 29 27 38 46
100 97 100 100 100 100 100 100 100 100 100 100 96 92 70 14 8 10 8 10 14 21 31 43 45 41 47
100 100 98 100 100 100 100 94 98 100 100 96 95 72 7 8 8 6 10 21 34 39 41 45 47 51 67

GFSFLT2_500_rhum_009.txt.gz
RH
94 84 90 87 95 77 82 93 78 99 100 100 99 98 100 99 100 91 83 97 100 94 87 83 81 76 76
70 83 81 90 95 78 75 77 83 95 98 99 98 99 98 95 98 86 88 100 99 91 88 90 79 82 79
62 77 79 74 73 69 87 88 93 95 98 97 99 99 99 98 98 91 94 99 92 90 93 84 88 90 84
48 54 68 66 60 76 93 96 100 87 92 99 97 98 100 99 99 99 99 100 92 96 89 87 98 95 85
32 44 46 96 52 97 96 98 86 86 98 97 100 99 99 98 100 100 100 98 95 97 90 98 100 94 65
29 28 23 35 99 99 91 96 99 100 100 99 100 100 99 100 100 100 99 86 100 98 98 97 100 80 21
18 19 19 30 70 100 99 92 82 95 99 100 100 99 100 95 100 100 97 100 98 99 100 100 88 38 5
16 16 19 32 44 99 78 96 99 90 97 100 100 99 99 100 100 100 99 97 98 100 100 94 58 7 7
11 15 37 56 84 91 96 100 98 99 98 100 99 100 100 100 100 100 94 98 100 100 100 72 12 7 11
9 18 54 96 97 96 99 100 100 100 100 100 99 100 100 100 100 100 100 100 100 100 81 18 8 11 10
12 69 100 91 96 100 100 100 100 98 98 100 100 100 100 100 100 95 100 99 100 89 25 8 9 9 9
25 98 100 95 98 100 100 100 100 99 100 99 100 100 98 92 99 100 98 97 95 42 8 9 8 10 11
66 99 100 100 100 99 99 100 98 100 100 100 100 100 100 100 98 92 99 91 45 9 9 8 8 12 16
96 100 100 100 100 100 100 100 100 99 100 99 100 100 97 100 98 93 81 32 10 8 8 9 14 17 25
96 100 100 100 100 100 100 100 99 99 99 99 95 98 100 99 97 72 20 9 8 8 9 18 27 31 42
100 100 100 100 100 100 100 100 98 96 92 95 98 97 95 99 67 16 8 8 8 13 23 32 39 36 42
100 100 100 100 100 100 99 96 92 93 94 100 100 100 98 56 9 7 8 15 24 27 30 32 36 36 37

GFSFLT2_500_rhum_012.txt.gz
RH
63 60 60 65 68 71 82 96 95 95 96 99 88 81 82 99 98 97 93 99 95 100 92 95 81 75 71
66 66 62 58 56 52 59 82 89 70 99 98 98 90 83 98 99 99 92 100 100 100 99 100 91 79 77
75 68 60 53 47 46 45 62 61 82 94 100 99 95 94 88 99 99 100 99 97 99 100 100 90 82 92
73 71 58 48 41 38 34 34 49 99 99 94 100 98 96 100 98 99 96 100 99 100 100 97 82 93 97
58 48 50 34 30 24 25 28 29 94 98 100 99 100 92 100 99 99 99 100 100 98 100 97 100 100 94
42 36 31 27 22 18 16 22 21 40 100 95 99 99 98 100 100 99 100 100 99 100 100 100 99 96 99
51 46 38 26 17 12 13 14 44 35 61 98 100 100 100 98 98 100 99 100 100 100 100 99 95 100 100
26 27 21 17 14 12 9 11 19 64 77 96 100 99 99 100 98 99 99 100 100 100 100 100 100 100 99
13 12 10 8 8 9 9 12 15 42 72 98 99 99 99 100 98 100 99 100 100 100 93 99 100 100 99
9 9 8 7 9 9 11 13 56 77 97 100 100 100 98 99 100 98 100 100 100 100 100 100 100 100 98
9 8 10 12 13 15 21 74 99 96 100 100 100 100 99 99 100 100 100 100 97 96 100 100 100 100 57
15 27 27 24 20 40 99 100 100 100 100 100 100 100 100 100 100 100 100 100 100 100 100 99 98 60 14
76 73 53 41 73 100 100 100 100 98 100 100 100 98 98 98 100 100 100 100 100 98 95 90 49 11 10
69 62 66 100 100 100 100 100 100 99 100 98 99 98 97 100 100 100 100 100 94 89 73 23 10 8 8
61 80 100 100 100 100 100 100 100 100 100 99 100 100 100 100 100 100 94 84 80 46 11 8 9 17 22
100 100 100 100 100 100 100 100 100 100 100 100 100 100 100 100 97 89 81 58 18 8 9 19 28 37 44
100 97 100 100 100 100 100 100 100 100 100 100 100 100 99 93 82 56 15 8 13 20 35 52 83 86 82

GFSFLT2_500_rhum_015.txt.gz
RH
79 74 76 80 80 88 86 78 73 77 90 96 93 96 94 96 89 99 100 88 84 90 94 94 97 100 100
76 72 72 79 76 80 84 81 71 64 66 74 76 87 90 91 97 97 98 100 99 98 99 97 100 98 100
93 81 76 83 87 88 82 78 72 66 57 56 53 80 98 86 99 96 100 97 96 98 98 100 97 100 98
91 78 89 96 93 91 79 69 69 58 48 43 48 53 75 87 99 100 99 98 100 100 100 100 99 100 99
84 86 83 94 98 90 83 60 52 46 41 38 36 38 57 98 99 99 100 92 100 100 100 100 100 100 100
22 41 59 79 80 73 62 55 60 30 24 26 20 24 33 67 100 100 99 99 95 92 100 100 100 100 100
12 14 16 27 44 52 56 55 49 46 35 20 15 17 24 41 95 100 99 98 96 100 99 100 97 99 100
9 10 10 12 14 18 23 26 25 22 18 18 14 11 28 56 60 98 100 99 99 100 100 100 100 100 100
7 9 10 11 12 13 12 13 14 13 11 10 10 10 33 72 97 99 100 99 99 98 99 100 100 99 100
6 6 7 8 11 11 10 9 8 6 7 9 11 16 24 73 93 96 100 99 100 99 100 100 99 100 100
6 7 9 10 11 12 10 7 7 8 14 27 39 83 97 100 100 100 100 99 100 99 100 100 100 100 100
8 10 12 13 13 21 23 21 19 16 80 100 97 100 100 100 100 100 100 99 100 99 100 100 100 100 100
13 43 56 58 85 77 57 99 95 96 100 100 100 100 100 100 100 100 100 100 100 100 100 100 100 100 100
87 96 84 82 78 84 100 100 100 100 100 100 100 100 100 100 100 100 100 100 100 100 100 100 100 100 100
95 90 77 73 98 100 100 100 100 100 100 100 100 100 100 100 100 100 100 100 100 100 100 99 94 77 28
100 83 81 100 100 100 100 100 100 100 100 100 100 100 100 100 100 100 100 100 100 97 91 77 32 11 11
91 95 100 100 100 100 100 100 100 100 100 100 100 100 100 100 100 98 96 96 82 43 16 10 11 19 33

GFSFLT2_500_rhum_018.txt.gz
RH
76 74 86 95 100 100 100 100 100 88 95 100 100 100 96 99 99 95 98 99 99 100 97 94 96 87 99
51 60 70 78 88 99 100 100 100 100 100 100 100 100 100 98 100 100 99 98 100 96 100 98 94 87 91
26 23 22 25 44 66 82 96 100 100 100 100 100 100 100 93 88 89 87 97 98 90 98 99 92 95 96
28 21 20 19 18 19 31 67 86 95 98 100 100 89 74 88 78 71 70 87 91 100 100 98 96 93 97
18 18 17 15 14 14 16 17 52 78 94 98 100 97 98 57 52 60 53 67 98 99 100 100 98 92 95
11 10 10 10 10 10 11 13 15 45 76 90 92 95 80 78 77 51 37 38 43 60 92 99 100 99 100
5 5 6 6 6 6 8 8 11 15 40 75 80 67 60 51 26 25 23 21 30 31 88 98 100 100 99
5 4 5 5 4 4 6 8 9 12 17 32 53 64 65 56 45 29 18 16 18 27 90 100 100 100 96
8 5 5 5 4 5 6 8 10 11 13 13 21 30 36 32 35 35 18 13 18 35 99 100 100 100 99
7 6 6 6 6 6 6 7 9 10 12 13 14 14 16 16 15 13 14 13 19 45 98 100 100 99 100
7 8 9 9 12 9 8 9 9 10 10 10 10 10 10 9 9 10 11 17 81 100 85 99 99 100 100
12 17 16 18 16 14 12 12 9 15 48 22 16 17 16 15 14 15 23 70 93 100 98 99 99 98 99
45 39 35 40 66 60 33 44 70 100 100 74 91 100 100 97 99 96 77 100 100 100 99 99 100 100 100
79 99 100 100 76 64 78 94 100 100 100 100 100 100 100 100 100 99 100 100 100 100 100 100 100 100 100
100 100 95 75 71 85 100 100 100 100 100 100 100 99 100 100 100 100 100 100 100 100 100 100 100 100 100
100 95 79 71 96 100 100 100 100 100 100 100 100 100 100 100 100 100 100 100 100 100 100 100 100 100 100
100 77 87 100 100 100 100 98 100 100 100 100 100 100 100 100 100 100 100 100 100 100 100 100 100 100 92

GFSFLT2_500_rhum_021.txt.gz
RH
66 54 40 34 32 30 32 36 47 67 91 100 100 100 100 98 98 88 97 98 98 100 96 99 99 100 98
58 59 50 43 35 32 31 32 27 24 34 67 88 100 100 99 100 100 94 90 95 99 99 100 86 97 98
42 46 43 38 34 31 28 25 22 20 18 20 42 77 100 100 100 100 99 98 91 90 90 98 94 86 88
9 12 18 26 29 33 33 29 26 20 16 16 16 28 67 100 100 95 99 97 93 89 83 92 98 92 98
6 6 6 6 8 10 15 17 15 12 11 11 14 14 28 76 100 100 97 100 98 98 99 95 88 92 99
10 8 6 7 7 6 5 5 5 6 6 8 10 11 16 38 91 100 94 93 94 86 89 89 87 87 96
15 17 15 14 10 7 5 4 3 4 5 6 8 9 13 18 65 100 99 95 91 91 88 73 78 82 89
17 18 17 14 12 9 6 4 4 5 5 4 6 8 12 15 36 89 100 96 95 93 96 86 83 54 60
15 14 13 11 9 7 6 5 5 6 5 5 7 8 11 14 23 57 97 93 74 73 53 34 22 18 71
9 9 8 8 9 11 13 14 7 8 7 8 9 10 11 13 18 37 70 72 72 69 57 41 20 17 28
11 14 22 56 64 76 77 41 11 10 11 9 10 11 11 13 14 24 40 44 47 43 42 42 18 21 56
33 100 100 100 91 58 58 39 17 18 22 12 12 11 12 12 13 14 18 22 25 23 23 20 19 37 81
100 100 100 100 100 100 95 52 88 91 65 34 21 14 10 11 12 12 12 12 12 12 13 12 27 77 100
100 100 100 100 88 73 86 100 100 100 100 100 100 100 66 12 9 10 12 14 15 12 18 39 99 100 100
99 100 100 89 72 94 100 100 100 100 100 99 98 96 100 100 81 75 88 99 61 62 100 100 100 100 100
100 96 90 89 99 100 100 100 100 100 100 100 100 100 100 100 100 100 100 100 100 100 100 100 100 100 100
100 100 100 100 100 100 100 100 100 100 100 100 100 100 100 100 100 100 100 100 100 100 100 100 100 100 100

GFSFLT2_500_rhum_024.txt.gz
RH
7 5 5 6 8 12 15 21 38 65 56 57 60 68 83 89 82 89 98 95 81 97 96 98 98 98 100
3 4 5 6 5 5 6 13 21 44 58 48 36 30 29 35 57 82 78 91 92 100 100 97 100 100 91
6 7 7 6 5 6 6 6 6 14 35 48 45 33 26 22 21 23 53 70 78 87 88 86 91 95 98
8 7 6 6 7 7 6 7 6 6 9 22 37 38 31 27 27 25 19 25 68 72 86 81 82 96 97
6 7 7 8 9 10 12 14 11 8 7 7 14 27 36 36 35 34 27 17 22 73 82 85 92 85 92
11 8 9 13 13 13 14 15 13 19 11 7 7 8 13 19 23 23 20 16 17 24 84 87 84 78 94
11 9 9 10 10 10 12 13 13 14 14 7 9 6 6 6 7 7 8 11 15 17 77 90 80 93 99
10 9 9 8 7 7 8 8 9 9 9 8 8 6 5 4 4 5 7 9 14 15 67 98 87 87 76
9 8 7 8 11 12 23 21 39 68 90 58 9 5 5 5 5 6 9 9 12 16 75 100 92 88 85
8 9 15 26 62 98 78 53 72 98 100 99 18 7 6 6 6 6 8 10 13 16 77 98 95 90 99
32 52 82 100 100 100 100 92 94 90 87 32 18 11 10 9 9 8 9 12 14 24 74 100 84 91 84
100 100 100 100 93 100 98 100 83 96 94 60 36 16 13 13 13 12 11 13 15 24 90 94 64 84 84
100 100 100 95 100 89 80 95 100 100 100 100 95 34 18 18 14 13 13 13 16 25 51 48 56 55 75
94 86 78 81 87 100 100 100 100 100 100 100 100 66 96 28 13 13 12 13 15 17 21 25 27 20 29
98 98 100 100 100 100 100 100 100 100 100 97 100 100 97 42 16 12 12 12 13 14 14 13 14 15 20
100 100 100 100 100 100 100 100 100 100 100 100 100 90 82 100 100 25 10 10 17 58 59 17 15 20 93
100 100 100 100 100 100 100 100 100 100 100 100 100 100 100 100 82 90 99 100 100 76 51 32 30 69 100

GFSFLT2_500_rhum_027.txt.gz
RH
5 6 6 4 4 5 6 7 7 7 7 6 4 4 11 45 82 81 95 90 73 50 57 92 99 98 91
8 4 4 6 6 7 8 8 7 7 7 6 5 5 5 12 58 82 83 99 95 81 65 66 96 92 98
4 7 8 7 7 6 6 6 6 6 6 7 7 6 5 6 19 69 75 80 83 91 92 81 57 76 97
10 8 8 7 7 10 8 8 7 8 9 11 11 9 7 6 7 35 69 64 62 55 65 79 78 57 84
8 8 9 7 15 14 8 7 7 9 9 10 13 14 12 8 6 13 51 58 40 31 29 28 37 61 68
8 8 8 18 15 6 6 6 6 13 9 9 13 14 15 11 7 6 22 54 42 30 24 22 20 20 33
9 9 14 12 6 6 8 11 15 21 11 11 18 13 14 14 8 6 7 32 49 36 26 26 30 25 19
11 15 8 7 11 15 39 59 82 99 77 68 100 100 66 11 10 6 6 8 25 44 39 33 36 34 22
14 8 20 46 61 58 89 72 100 100 100 99 100 100 87 17 7 6 5 5 5 10 19 29 30 27 18
22 71 97 98 100 100 93 50 83 98 100 82 67 63 81 14 7 5 4 4 4 4 5 7 9 12 15
96 100 100 100 100 99 94 85 79 91 100 78 62 43 20 14 8 6 5 5 5 5 6 7 10 14 36
100 100 100 88 82 83 98 99 100 87 96 81 71 40 23 14 11 8 7 7 7 10 10 11 14 33 90
100 91 89 99 97 100 94 97 100 100 100 100 100 89 26 15 13 12 10 10 12 13 14 16 35 83 100
100 100 100 100 98 100 100 100 100 100 100 100 100 100 67 49 14 14 14 15 15 15 17 37 99 96 97
100 100 100 100 100 100 100 100 100 100 100 100 100 96 97 99 18 16 16 16 16 17 41 100 100 97 92
100 100 100 100 100 100 100 100 100 100 100 100 100 100 100 39 20 17 18 17 15 16 19 29 51 66 67
100 100 100 100 100 100 100 100 100 100 100 100 100 100 100 100 96 36 22 22 16 15 17 16 15 17 18

GFSFLT2_500_rhum_030.txt.gz
RH
7 7 5 5 8 9 6 5 6 8 8 7 7 7 7 8 8 8 7 6 6 11 12 11 24 35 31
6 6 10 12 7 4 6 8 8 8 7 6 8 8 8 6 6 6 7 7 6 9 16 16 52 62 56
11 13 10 4 5 8 8 8 8 8 8 11 10 8 8 7 7 6 6 6 5 6 18 32 77 94 90
14 6 5 9 10 8 7 8 9 11 10 7 7 7 7 7 7 7 7 7 6 5 12 41 79 100 100
4 8 12 9 7 7 7 7 7 8 7 7 7 7 8 8 7 8 10 11 8 6 6 41 76 100 100
13 13 10 10 10 8 15 15 13 39 25 38 23 18 11 11 11 12 14 15 14 7 6 29 70 98 100
18 17 14 11 14 39 82 79 83 100 99 64 56 66 94 94 95 94 47 16 14 9 6 25 72 87 100
20 17 10 43 72 71 76 74 88 91 95 100 100 65 94 100 100 100 100 23 14 9 6 22 68 74 90
16 14 58 85 87 82 83 76 78 90 96 86 95 99 98 90 100 98 34 11 10 7 6 19 64 66 64
36 79 96 98 100 100 93 90 97 100 100 92 100 91 74 81 62 29 12 8 8 6 6 13 55 51 37
96 98 98 97 99 100 83 83 83 94 85 75 92 95 48 41 16 11 9 7 7 6 6 8 38 49 33
100 100 100 100 100 100 100 100 100 100 100 97 100 98 70 21 16 11 9 7 6 5 5 5 11 41 45
100 100 100 100 100 100 100 100 97 100 100 100 100 100 89 20 17 12 10 8 7 5 4 4 5 7 18
100 100 100 100 100 100 100 100 100 100 100 100 94 100 80 23 16 14 10 10 11 11 9 7 7 7 8
100 100 100 100 100 100 100 100 100 100 100 100 92 94 67 25 17 16 14 15 15 15 15 15 14 17 30
100 100 100 100 100 100 100 100 100 100 100 100 90 49 17 17 17 17 18 18 23 70 43 53 29 61 100
99 100 99 98 100 100 98 98 100 100 100 100 99 82 24 18 16 17 19 19 21 39 81 100 92 93 100

GFSFLT2_500_rhum_033.txt.gz
RH
2 2 2 3 6 10 13 13 10 7 5 5 6 8 6 7 7 7 7 7 7 6 6 5 4 4 6
2 3 6 10 13 14 9 5 6 8 9 9 8 8 8 8 8 8 7 7 6 6 7 7 6 5 4
8 11 12 14 9 4 6 10 11 10 8 9 9 9 9 9 9 8 8 7 7 7 7 6 8 8 5
18 15 11 4 7 10 8 10 9 10 11 14 11 10 10 8 7 7 6 6 6 7 7 6 6 6 8
13 5 6 15 15 11 8 8 30 68 72 73 66 58 48 32 19 13 10 8 7 7 6 7 7 6 7
4 16 19 15 10 12 44 66 70 90 99 100 100 100 91 92 53 22 29 38 31 13 9 7 7 7 6
23 21 12 14 53 67 69 78 98 100 97 97 98 72 70 88 81 53 50 68 77 86 90 19 10 7 6
20 15 45 76 76 74 85 82 83 81 36 42 93 77 78 78 86 96 100 96 96 100 100 66 16 10 6
33 86 94 91 93 79 73 75 87 100 71 81 97 85 86 99 100 68 89 100 100 89 58 18 13 9 6
100 100 98 99 94 87 86 94 99 100 98 100 100 84 100 98 70 57 72 56 28 13 13 13 10 7 6
100 98 98 100 100 100 100 99 100 100 100 100 100 100 100 100 48 38 26 17 10 9 10 8 7 6 8
98 100 100 100 100 100 100 100 97 99 100 100 100 100 100 74 29 17 13 10 8 8 7 6 5 6 28
100 100 100 100 100 100 100 100 96 100 100 100 100 98 80 30 17 14 25 66 26 8 7 6 6 14 59
100 100 100 100 100 100 100 100 100 100 100 100 99 81 68 19 15 12 12 43 96 10 7 6 8 33 63
100 100 100 100 100 100 100 100 100 100 100 90 64 27 21 19 17 18 58 51 70 87 9 6 8 34 57
98 95 96 100 100 96 94 99 99 100 100 100 33 19 19 21 19 70 100 52 56 20 21 9 6 14 42
44 31 23 21 36 91 98 93 92 100 100 100 96 25 18 19 20 53 100 100 100 24 31 29 27 14 8

GFSFLT2_500_rhum_036.txt.gz
RH
3 2 2 2 3 5 7 11 12 14 13 10 8 6 5 4 4 4 4 4 4 4 4 4 4 5 5
2 3 5 8 9 11 13 12 9 6 4 10 12 10 8 7 7 6 6 6 7 7 7 7 7 6 6
6 10 11 12 9 5 4 4 7 13 15 12 10 9 9 12 11 9 8 7 7 7 8 8 8 8 7
15 12 8 4 5 8 11 15 12 13 14 15 21 45 65 61 52 44 27 20 12 8 8 7 7 7 7
6 5 8 17 16 12 23 42 56 75 74 80 81 86 94 81 53 42 44 47 53 14 10 9 7 6 6
10 18 15 14 32 69 70 87 97 100 54 87 73 74 78 69 65 62 55 53 47 48 37 16 9 8 7
19 16 41 78 81 91 100 95 99 89 58 78 81 68 71 78 87 81 64 68 92 100 100 87 79 71 18
29 78 86 89 82 84 83 93 100 97 78 90 93 98 94 97 74 82 97 100 100 99 82 100 100 100 100
92 96 97 96 90 84 87 96 100 100 93 95 98 93 100 100 86 95 100 60 37 38 57 90 100 100 100
100 100 100 95 93 97 94 96 100 100 99 100 100 95 100 97 100 95 67 20 16 17 22 26 22 34 63
100 100 100 100 100 100 100 94 94 100 90 90 93 96 98 90 67 28 15 17 14 10 10 12 13 15 17
98 100 100 100 100 100 100 100 90 94 99 100 100 94 43 19 16 19 86 92 43 11 10 10 14 14 12
100 100 97 98 100 100 100 100 98 99 100 84 86 66 20 16 18 99 100 72 53 18 8 7 9 9 8
99 97 97 96 95 99 100 100 100 100 100 51 26 26 27 74 54 55 100 99 32 10 7 6 6 6 10
72 50 33 24 22 42 82 100 99 100 100 90 28 25 71 100 100 100 57 34 10 8 7 6 9 35 62
27 25 22 21 19 18 17 48 100 100 100 100 36 25 75 95 100 97 43 20 9 8 9 18 51 72 82
32 33 29 22 20 17 17 16 53 100 100 100 92 28 41 100 100 82 93 99 100 61 11 28 64 84 91

GFSFLT2_500_rhum_039.txt.gz
RH
5 3 2 2 4 5 6 8 8 9 9 6 5 4 4 4 4 5 5 5 5 5 5 6 6 6 7
3 4 5 5 4 4 5 5 5 5 11 12 12 11 10 9 8 7 8 8 8 7 6 6 7 6 6
5 5 4 4 4 5 6 11 17 17 14 14 16 14 15 17 14 11 9 12 14 19 21 13 7 7 7
6 6 9 11 15 16 16 22 42 62 70 74 69 69 72 72 68 69 66 67 68 64 60 47 24 11 8
10 13 16 17 28 66 77 84 99 76 57 96 73 77 88 72 62 63 65 68 75 72 65 62 53 33 12
12 15 30 83 89 97 94 100 100 97 99 100 85 100 100 98 77 75 80 74 68 73 58 56 63 43 17
21 65 85 91 96 100 100 100 100 97 85 99 86 90 86 96 96 94 99 89 84 87 50 45 71 98 84
80 89 90 93 91 97 100 100 100 93 68 92 86 97 95 100 88 80 84 100 100 88 86 61 42 64 93
86 92 95 96 90 87 92 98 100 100 88 99 86 76 92 67 91 100 100 100 98 88 34 23 27 32 43
100 100 100 97 91 95 95 92 96 99 90 90 72 27 69 29 20 20 22 27 49 38 24 15 13 12 16
100 100 100 98 100 99 97 92 86 91 79 79 20 20 15 15 16 58 95 97 93 79 51 26 12 10 11
95 93 97 100 100 100 96 100 93 85 86 82 20 20 40 53 66 96 100 100 100 52 49 22 11 11 13
91 82 46 25 22 22 22 56 92 88 94 79 23 66 85 100 100 97 88 100 92 55 9 9 10 12 14
33 23 21 21 19 17 18 18 33 99 94 76 28 76 90 100 89 64 27 46 16 8 6 6 8 9 10
23 27 30 28 23 20 16 16 18 90 99 92 36 91 96 100 91 100 100 12 7 6 6 6 6 6 6
37 37 32 26 26 22 22 16 17 57 100 100 30 93 89 98 100 100 94 12 19 29 40 58 74 78 79
38 29 26 25 26 27 24 20 17 23 100 100 48 84 91 90 100 100 56 21 54 78 100 100 95 81 60

GFSFLT2_500_rhum_042.txt.gz
RH
8 5 3 2 3 4 4 5 7 10 8 7 8 6 5 6 7 7 8 6 5 4 4 6 8 8 7
4 2 3 5 5 6 10 14 16 17 20 23 29 38 48 48 45 43 32 19 12 10 10 7 4 4 6
2 4 5 6 8 12 22 47 69 66 65 60 68 71 71 65 58 54 54 52 55 61 47 17 8 8 8
5 6 7 10 29 56 71 88 83 84 83 80 79 77 73 67 68 70 69 63 52 49 62 75 76 66 54
8 9 26 57 72 83 86 87 91 86 91 95 97 85 84 84 86 87 83 82 78 66 66 62 58 84 88
23 56 75 72 82 87 82 97 100 94 89 100 82 91 90 91 70 75 93 100 100 100 100 82 66 66 65
59 69 75 75 82 95 96 99 100 95 71 100 88 98 67 32 33 46 62 84 94 92 83 94 80 69 58
73 75 76 76 76 76 80 97 100 92 66 90 85 61 30 21 27 16 15 23 78 100 100 100 100 99 98
70 74 80 80 78 80 77 79 94 100 88 84 76 21 22 18 21 24 25 50 62 57 36 47 50 47 43
88 90 88 87 82 68 54 43 50 80 90 88 40 17 71 83 77 96 99 85 90 94 90 81 57 45 33
90 90 88 72 48 23 21 21 20 20 63 82 29 38 58 54 81 73 79 93 92 88 100 90 64 38 35
87 66 43 26 23 20 18 16 13 16 44 87 29 43 50 63 83 99 100 57 47 66 17 9 9 9 10
23 20 20 22 25 26 24 19 14 13 32 90 35 62 62 72 90 100 77 46 11 10 8 7 8 11 12
20 26 33 33 27 22 22 21 21 19 22 98 38 62 94 88 95 96 17 18 15 10 8 7 9 10 12
28 36 35 29 26 26 30 25 19 20 57 100 49 74 77 80 100 56 40 60 61 46 32 10 7 8 10
37 41 33 27 36 43 43 34 28 26 40 100 87 78 97 98 95 29 69 89 76 82 91 90 62 16 9
46 52 43 32 35 50 56 49 40 34 33 100 97 85 100 89 95 43 70 97 82 78 69 77 89 97 97

GFSFLT2_500_rhum_045.txt.gz
RH
16 12 7 4 3 2 3 4 5 6 13 23 39 44 54 51 53 56 55 52 37 20 10 6 6 6 6
9 6 3 2 4 4 7 14 34 51 49 54 59 63 64 62 63 66 66 61 57 58 60 48 27 12 9
5 3 4 4 10 32 56 59 69 70 71 72 72 73 62 60 66 73 81 84 84 85 76 58 62 69 49
3 4 6 25 51 50 70 72 82 76 77 78 82 72 68 65 61 53 54 56 69 94 87 88 85 61 61
5 6 40 62 63 69 70 85 91 84 80 92 81 72 76 74 41 23 20 20 26 42 72 89 85 71 58
6 40 63 62 71 69 72 85 95 89 80 100 67 84 72 48 15 16 14 14 14 16 38 84 99 89 73
32 50 59 63 67 78 81 87 87 82 77 99 78 86 70 18 20 32 38 42 37 28 17 53 89 93 97
56 59 63 61 61 64 66 70 52 41 48 46 69 89 54 21 34 37 59 62 69 78 74 69 45 73 97
63 61 61 58 54 52 49 31 21 20 22 19 30 83 30 45 53 60 86 63 69 50 38 78 81 68 54
83 79 71 53 43 25 19 18 16 17 14 15 28 68 50 84 71 86 100 98 99 17 9 12 32 34 45
74 54 28 18 17 17 16 15 15 18 16 14 38 74 33 55 86 99 55 21 26 22 14 9 8 7 7
24 23 21 21 24 29 23 19 15 12 14 15 44 78 39 57 81 64 36 49 55 48 34 10 7 7 8
27 26 26 31 29 24 24 26 30 19 15 15 52 82 51 69 76 37 68 79 78 86 82 40 8 9 11
29 33 33 36 32 26 36 39 43 38 22 19 44 76 77 98 40 51 85 95 93 91 86 86 45 9 13
30 43 48 49 46 30 38 50 44 38 39 27 51 76 90 98 73 47 96 91 65 80 93 96 98 45 9
28 33 56 68 64 42 46 46 44 40 36 29 98 88 96 97 100 54 96 92 66 86 96 85 86 97 55
28 31 55 87 82 55 50 50 46 40 33 33 100 95 100 100 100 51 74 98 73 86 97 94 100 98 100

GFSFLT2_500_rhum_048.txt.gz
RH
19 11 8 8 6 4 2 3 4 9 32 34 46 52 47 48 48 52 57 62 62 61 63 61 50 37 21
9 8 7 4 3 2 4 6 30 52 46 58 66 61 57 58 62 60 69 69 66 63 63 62 63 65 52
9 6 4 2 3 4 19 54 61 60 58 64 66 64 63 58 58 63 62 58 44 48 54 54 50 57 73
6 3 3 4 5 30 51 65 66 72 63 71 73 68 64 56 56 58 53 17 15 13 13 13 18 26 47
3 4 5 8 33 49 57 66 82 75 76 90 73 71 71 60 60 69 42 16 18 18 20 18 13 12 20
4 5 21 40 52 60 63 64 80 90 69 98 74 71 68 63 62 74 26 24 25 32 37 39 36 31 15
6 30 50 57 55 67 69 62 64 58 51 34 34 26 22 25 40 66 30 35 54 80 88 70 72 61 47
44 57 55 53 48 45 44 30 28 21 21 18 18 16 16 15 29 48 44 65 86 58 27 16 10 9 20
63 55 40 24 19 18 18 17 17 20 15 14 15 14 17 23 51 40 64 95 51 27 47 51 31 13 8
25 22 21 20 20 20 20 19 19 20 17 15 18 14 22 76 74 50 95 89 45 66 84 84 83 37 9
18 18 21 21 23 23 22 22 20 18 20 19 19 17 14 85 93 78 100 45 80 93 93 90 93 74 14
23 22 22 23 26 31 33 34 26 26 27 27 19 17 19 97 58 95 97 69 86 80 84 93 94 95 27
21 22 23 24 26 38 48 43 38 39 34 33 25 21 48 69 86 72 51 98 82 79 96 86 92 91 32
26 28 28 26 28 40 61 56 47 60 42 36 29 22 98 73 85 54 62 92 85 85 93 87 81 97 53
39 41 47 43 42 57 81 67 44 46 55 42 33 26 92 100 100 72 57 100 87 89 78 87 91 92 85
53 54 59 65 79 86 88 77 53 51 45 44 37 45 94 78 86 100 82 90 89 80 67 76 88 95 81
59 62 67 71 70 77 75 68 56 48 44 45 34 90 99 98 96 99 72 100 92 72 72 70 84 88 95